Regional Weather Roundup
Issued by NWS

Home | Current Version | Previous Version | Text Only | Print | Product List | Glossary Off
Versions: 1 2 3 4 5 6 7 8 9 10 11 12 13 14 15 16 17 18 19 20 21 22 23 24 25 26 27 28 29 30 31 32 33 34 35 36 37 38 39 40 41 42 43 44 45 46 47 48 49 50

000
ASUS43 KOAX 172010
RWRNE

WEATHER ROUNDUP FOR NEBRASKA
NATIONAL WEATHER SERVICE OMAHA NE
300 PM CDT WED SEP 17 2014

NOTES: SATELLITE DATA IS BEING USED TO AUGMENT CLOUD COVER ABOVE
       12000 FEET.
       "FAIR" INDICATES FEW OR NO CLOUDS BELOW 12,000 FEET WITH NO
       SIGNIFICANT WEATHER AND/OR OBSTRUCTIONS TO VISIBILITY.

  * THESE STATIONS DO NOT REPORT WEATHER SUCH AS RAIN...SNOW OR FOG.

NEZ001>004-019>022-054>056-172100-
NEBRASKA PANHANDLE

CITY           SKY/WX    TMP DP  RH WIND       PRES   REMARKS
SCOTTSBLUFF    SUNNY     87  41  19 VRB3      29.96F
ALLIANCE       SUNNY     85  47  26 SE8       29.95F
CHADRON        SUNNY     84  49  29 NE5       29.93F
KIMBALL        SUNNY     86  35  16 CALM      30.00F
SIDNEY         SUNNY     89  41  18 VRB7      29.98F
$$

NEZ057>060-069>072-079>082-172100-
SOUTHWEST NEBRASKA

CITY           SKY/WX    TMP DP  RH WIND       PRES   REMARKS
NORTH PLATTE   SUNNY     84  60  44 E12       29.91F
IMPERIAL       SUNNY     88  50  27 S9        29.92F
LEXINGTON      MOSUNNY   81  62  53 SE6       29.92S
MCCOOK         SUNNY     84  61  45 E7        29.91F
OGALLALA       SUNNY     87  54  32 S3        29.92F
$$

NEZ005>010-023>029-035>040-094-172100-
NORTH CENTRAL NEBRASKA

CITY           SKY/WX    TMP DP  RH WIND       PRES   REMARKS
VALENTINE      MOSUNNY   83  54  36 NE10      29.92F
AINSWORTH      SUNNY     79  51  38 E7        29.94S
BROKEN BOW     SUNNY     84  57  39 SE8       29.91F
O`NEILL        SUNNY     80  59  49 E10       29.92S
ORD            SUNNY     81  62  52 E8        29.89F
THEDFORD       SUNNY     88  46  22 SE7       29.92F
$$

NEZ041-046>049-061>064-073>077-083>087-172100-
SOUTH CENTRAL NEBRASKA

CITY           SKY/WX    TMP DP  RH WIND       PRES   REMARKS
GRAND ISLAND   SUNNY     80  63  55 E10       29.91F
AURORA         SUNNY     79  63  57 SE6       29.91S
HASTINGS       MOSUNNY   78  61  55 SE9       29.90F
HEBRON         SUNNY     78  63  59 SE9       29.90F
HOLDREGE       MOSUNNY   81  59  47 SE7       29.91F
KEARNEY *      MOSUNNY   79  63  57 E12       29.93R
YORK           SUNNY     77  66  69 SE8       29.91F
$$

NEZ011>018-030>034-042>045-172100-
NORTHEAST NEBRASKA

CITY           SKY/WX    TMP DP  RH WIND       PRES   REMARKS
NORFOLK        SUNNY     81  57  43 E9        29.90F
ALBION         HAZE      79  61  54 SE8       29.91S VSB 1
BLAIR          SUNNY     78  62  57 E6        29.91S
COLUMBUS *     SUNNY     79  63  57 E7        29.91F
FREMONT        SUNNY     79  60  50 E6        29.91S
TEKAMAH        SUNNY     80  58  46 CALM      29.89F
WAYNE          SUNNY     80  58  46 E5        29.91S
$$

NEZ050>053-065>068-078-088>093-172100-
SOUTHEAST NEBRASKA

CITY           SKY/WX    TMP DP  RH WIND       PRES   REMARKS
LINCOLN        SUNNY     78  63  59 VRB7      29.91F
OMAHA EPPLEY   MOSUNNY   77  60  55 SE6       29.90F
BEATRICE       SUNNY     79  65  63 SE7       29.90F
FALLS CITY     MOSUNNY   77  66  68 SE8       29.90S
NEBRASKA CITY  SUNNY     76  56  48 E8        29.91F
PLATTSMOUTH    SUNNY     77  60  56 SE7       29.91F
$$

NEZ044-045-051>053-067-172100-
OMAHA AREA

CITY           SKY/WX    TMP DP  RH WIND       PRES   REMARKS
OMAHA EPPLEY   MOSUNNY   77  60  55 SE6       29.90F
BLAIR          SUNNY     78  62  57 E6        29.91S
FREMONT        SUNNY     79  60  50 E6        29.91S
MILLARD        SUNNY     78  64  61 SE7       29.90S
OFFUTT AFB     SUNNY     79  66  63 E7        29.90F
PLATTSMOUTH    SUNNY     77  60  56 SE7       29.91F
WAHOO          FAIR      80  60  51 SE8       29.91S
$$


USA.gov is the U.S. government's official web portal to all federal, state and local government web resources and services.